TimeAKST,TemperatureF,Dew PointF,Humidity,Sea Level PressureIn,VisibilityMPH,Wind Direction,Wind SpeedMPH,Gust SpeedMPH,PrecipitationIn,Events,Conditions,WindDirDegrees,DateUTC
12:53 AM,-7.1,-17.0,62,29.65,10.0,North,3.5,-,N/A,,Clear,10,2012-11-18 09:53:00
1:53 AM,-9.0,-17.0,68,29.65,10.0,NNE,3.5,-,N/A,,Clear,30,2012-11-18 10:53:00
3:53 AM,-11.9,-18.9,71,29.65,10.0,North,3.5,-,N/A,,Clear,10,2012-11-18 12:53:00
4:53 AM,-13.0,-18.9,75,29.66,10.0,Calm,Calm,-,N/A,,Clear,0,2012-11-18 13:53:00
5:53 AM,-15.0,-22.0,71,29.68,10.0,Calm,Calm,-,N/A,,Clear,0,2012-11-18 14:53:00
6:53 AM,-17.0,-23.1,74,29.69,10.0,Calm,Calm,-,N/A,,Clear,0,2012-11-18 15:53:00
7:53 AM,-18.0,-23.1,78,29.70,10.0,Calm,Calm,-,N/A,,Clear,0,2012-11-18 16:53:00
8:53 AM,-15.0,-20.9,75,29.72,10.0,Calm,Calm,-,N/A,,Clear,0,2012-11-18 17:53:00
9:53 AM,-0.9,-17.0,47,29.73,10.0,NNE,9.2,-,N/A,,Clear,30,2012-11-18 18:53:00
10:53 AM,-0.0,-17.0,45,29.75,10.0,NE,9.2,-,N/A,,Clear,40,2012-11-18 19:53:00
11:53 AM,1.0,-17.0,43,29.76,10.0,NE,13.8,17.3,N/A,,Clear,40,2012-11-18 20:53:00
12:53 PM,1.0,-17.0,43,29.78,10.0,NNE,8.1,-,N/A,,Clear,30,2012-11-18 21:53:00
1:53 PM,-0.0,-17.0,45,29.78,10.0,NNE,12.7,-,N/A,,Clear,30,2012-11-18 22:53:00
2:53 PM,-0.0,-17.0,45,29.79,10.0,NE,10.4,18.4,N/A,,Scattered Clouds,40,2012-11-18 23:53:00
3:53 PM,-0.9,-18.0,44,29.80,10.0,NE,10.4,16.1,N/A,,Clear,40,2012-11-19 00:53:00
4:53 PM,-2.0,-18.9,45,29.81,10.0,NE,9.2,20.7,N/A,,Clear,40,2012-11-19 01:53:00
5:53 PM,-2.0,-18.9,45,29.83,10.0,NE,10.4,20.7,N/A,,Clear,40,2012-11-19 02:53:00
6:53 PM,-2.9,-18.9,46,29.85,10.0,NE,10.4,-,N/A,,Clear,40,2012-11-19 03:53:00
7:53 PM,-2.0,-18.9,45,29.86,10.0,NE,10.4,-,N/A,,Clear,40,2012-11-19 04:53:00
8:53 PM,-2.0,-18.0,47,29.87,10.0,NE,9.2,-,N/A,,Clear,40,2012-11-19 05:53:00
9:53 PM,-2.9,-18.0,49,29.88,10.0,ENE,5.8,-,N/A,,Clear,70,2012-11-19 06:53:00
10:53 PM,-5.1,-18.0,54,29.89,10.0,NE,4.6,-,N/A,,Clear,50,2012-11-19 07:53:00
11:53 PM,-5.1,-18.0,54,29.90,10.0,NE,3.5,-,N/A,,Clear,50,2012-11-19 08:53:00